This demonstration page uses our WeatherBlox Daily Observations layout. Learn more.

40.92945, -100.16068

Hourly Observations for September 21, 2018

Temp ( °F °C ) Dew Point ( °F °C ) Humidity (%) Winds ( mph kmh ) Pressure ( in mb ) Visibility ( mi km ) Precip ( " mm )
12:15 am 00:15 Clear 60 15.7 53 11.9 78 78 NNW 9 15 30 1016 10 16.0934 0 0
12:35 am 00:35 Clear 59 15 53 11.4 79 79 NNW 6 9 30 1016 10 16.0934 0 0
12:55 am 00:55 Clear 58 14.3 52 11 81 81 NNW 5 7 30 1016 10 16.0934 0 0
1:10 am 01:10 Clear 57 13.7 52 11 84 84 NNW 5 7 30 1016 10 16.0934 0 0
1:35 am 01:35 Clear 56 13.5 52 11 85 85 NNW 3 6 30.06 1018 10 16.0934 0 0
1:55 am 01:55 Clear 55 12.8 51 10.7 87 87 Calm 30.06 1018 10 16.0934 0 0
2:15 am 02:15 Clear 54 12.4 51 10.8 90 90 Calm 30.06 1018 10 16.0934 0 0
2:35 am 02:35 Clear 54 12.2 51 10.4 89 89 Calm 30.09 1019 10 16.0934 0 0
2:55 am 02:55 Clear 53 11.8 50 10.2 90 90 NW 3 6 30.09 1019 10 16.0934 0 0
3:15 am 03:15 Clear 52 11 49 9.6 91 91 NW 7 11 30.09 1019 10 16.0934 0 0
3:35 am 03:35 Clear 51 10.8 49 9.5 92 92 WNW 3 6 30.12 1020 10 16.0934 0 0
3:55 am 03:55 Clear 51 10.6 49 9.3 92 92 WNW 7 11 30.12 1020 10 16.0934 0 0
4:15 am 04:15 Clear 51 10.7 49 9.5 92 92 WNW 6 9 30.15 1021 10 16.0934 0 0
4:35 am 04:35 Clear 51 10.5 49 9.3 92 92 W 7 11 30.15 1021 10 16.0934 0 0
4:55 am 04:55 Clear 51 10.4 48 9.1 92 92 W 6 9 30.15 1021 10 16.0934 0 0
5:15 am 05:15 Clear 50 10 48 8.9 93 93 NW 6 9 30.15 1021 10 16.0934 0 0
5:35 am 05:35 Clear 50 10 48 9 94 94 WNW 5 7 30.18 1022 10 16.0934 0 0
5:55 am 05:55 Clear 51 10.5 49 9.3 92 92 NW 7 11 30.18 1022 10 16.0934 0 0
6:15 am 06:15 Clear 50 10 48 8.7 92 92 NW 6 9 30.18 1022 10 16.0934 0 0
6:35 am 06:35 Clear 49 9.5 47 8.2 92 92 NW 3 6 30.21 1023 10 16.0934 0 0
6:55 am 06:55 Clear 49 9.6 47 8.5 93 93 NW 3 6 30.21 1023 10 16.0934 0 0
7:15 am 07:15 Clear 49 9.5 47 8.2 92 92 WNW 3 6 30.24 1024 10 16.0934 0 0
7:35 am 07:35 Sunny 49 9.5 46 8 90 90 NNW 3 6 30.24 1024 10 16.0934 0 0
7:55 am 07:55 Sunny 49 9.6 46 7.7 88 88 NW 5 7 30.24 1024 10 16.0934 0 0
8:15 am 08:15 Sunny 51 10.3 47 8.3 88 88 N 6 9 30.27 1025 10 16.0934 0 0
8:35 am 08:35 Sunny 53 11.5 47 8.5 82 82 N 7 11 30.27 1025 10 16.0934 0 0
8:55 am 08:55 Sunny 54 12 47 8.2 78 78 NW 8 13 30.3 1026 10 16.0934 0 0
9:15 am 09:15 Sunny 55 12.5 46 7.9 74 74 NNW 13 20 30.3 1026 10 16.0934 0 0
9:35 am 09:35 Sunny 56 13.1 46 7.8 70 70 NNW 13 20 30.27 1025 10 16.0934 0 0
9:55 am 09:55 Sunny 56 13.5 45 7 65 65 N 16 26 30.27 1025 10 16.0934 0 0
10:15 am 10:15 Sunny 58 14.2 45 7.2 63 63 NNW 14 22 30.27 1025 10 16.0934 0 0
10:35 am 10:35 Sunny 59 14.9 45 7.2 60 60 N 13 20 30.27 1025 10 16.0934 0 0
10:55 am 10:55 Sunny 60 15.3 44 6.9 58 58 N 16 26 30.27 1025 10 16.0934 0 0
11:15 am 11:15 Sunny 61 15.9 45 7 56 56 N 14 22 30.24 1024 10 16.0934 0 0
11:35 am 11:35 Sunny 62 16.5 45 7 54 54 N 15 24 30.24 1024 10 16.0934 0 0
11:55 am 11:55 Sunny 63 17.2 45 7 51 51 N 15 24 30.24 1024 10 16.0934 0 0
12:15 pm 12:15 Sunny 64 17.6 45 7 50 50 N 14 22 30.24 1024 10 16.0934 0 0
12:35 pm 12:35 Sunny 64 17.9 44 6.4 47 47 N 13 20 30.24 1024 10 16.0934 0 0
12:55 pm 12:55 Sunny 66 18.8 44 6.4 45 45 N 10 17 30.24 1024 10 16.0934 0 0
1:15 pm 13:15 Sunny 66 18.7 44 6.4 45 45 NNE 12 19 30.24 1024 10 16.0934 0 0
1:35 pm 13:35 Sunny 66 19.1 43 5.9 42 42 NNE 13 20 30.24 1024 10 16.0934 0 0
1:55 pm 13:55 Sunny 67 19.2 43 6.1 43 43 NE 8 13 30.21 1023 10 16.0934 0 0
2:15 pm 14:15 Sunny 67 19.5 42 5.6 40 40 NNE 12 19 30.21 1023 10 16.0934 0 0
2:35 pm 14:35 Sunny 67 19.7 41 4.8 38 38 NE 9 15 30.21 1023 10 16.0934 0 0
2:55 pm 14:55 Sunny 68 19.8 41 4.8 37 37 NNE 12 19 30.21 1023 10 16.0934 0 0
3:15 pm 15:15 Sunny 68 20.2 40 4.6 36 36 ENE 10 17 30.21 1023 10 16.0934 0 0
3:35 pm 15:35 Sunny 69 20.4 39 3.8 34 34 N 7 11 30.18 1022 10 16.0934 0 0
3:55 pm 15:55 Sunny 69 20.6 40 4.3 34 34 NE 8 13 30.18 1022 10 16.0934 0 0
4:15 pm 16:15 Sunny 69 20.5 40 4.3 35 35 NE 9 15 30.18 1022 10 16.0934 0 0
4:35 pm 16:35 Sunny 69 20.7 40 4.2 34 34 NNE 9 15 30.18 1022 10 16.0934 0 0
4:55 pm 16:55 Sunny 69 20.4 39 3.8 34 34 NE 8 13 30.18 1022 10 16.0934 0 0
5:15 pm 17:15 Sunny 68 20.1 39 3.9 35 35 NE 8 13 30.18 1022 10 16.0934 0 0
5:35 pm 17:35 Sunny 68 19.8 40 4.2 36 36 ENE 8 13 30.18 1022 10 16.0934 0 0
5:55 pm 17:55 Sunny 67 19.7 40 4.2 36 36 ENE 10 17 30.18 1022 10 16.0934 0 0
6:15 pm 18:15 Sunny 66 19.1 40 4.6 39 39 E 9 15 30.18 1022 10 16.0934 0 0
6:35 pm 18:35 Sunny 65 18.4 42 5.3 42 42 E 9 15 30.21 1023 10 16.0934 0 0
6:55 pm 18:55 Sunny 64 17.5 42 5.5 45 45 E 9 15 30.21 1023 10 16.0934 0 0
7:15 pm 19:15 Sunny 62 16.5 42 5.5 48 48 E 9 15 30.21 1023 10 16.0934 0 0
7:35 pm 19:35 Sunny 60 15.3 42 5.8 53 53 E 9 15 30.27 1025 10 16.0934 0 0
7:55 pm 19:55 Clear 57 13.8 43 6 60 60 E 7 11 30.27 1025 10 16.0934 0 0
8:15 pm 20:15 Clear 55 12.9 43 6.1 64 64 E 6 9 30.27 1025 10 16.0934 0 0
8:35 pm 20:35 Clear 53 11.6 43 6 69 69 E 7 11 30.3 1026 10 16.0934 0 0
8:55 pm 20:55 Clear 52 11.2 43 6.1 71 71 E 6 9 30.33 1027 10 16.0934 0 0
9:15 pm 21:15 Clear 53 11.5 43 6.1 70 70 E 7 11 30.33 1027 10 16.0934 0 0
9:35 pm 21:35 Clear 52 11.2 43 6 71 71 E 7 11 30.33 1027 10 16.0934 0 0
9:55 pm 21:55 Clear 51 10.7 43 6 73 73 E 7 11 30.33 1027 10 16.0934 0 0
10:15 pm 22:15 Clear 51 10.6 43 6 73 73 E 7 11 30.33 1027 10 16.0934 0 0
10:35 pm 22:35 Clear 50 10.2 42 5.8 74 74 E 7 11 30.33 1027 10 16.0934 0 0
10:55 pm 22:55 Clear 49 9.5 42 5.6 77 77 E 6 9 30.36 1028 10 16.0934 0 0
11:15 pm 23:15 Clear 49 9.6 42 5.6 76 76 E 6 9 30.36 1028 10 16.0934 0 0
11:35 pm 23:35 Clear 50 10.1 42 5.7 74 74 ESE 7 11 30.33 1027 10 16.0934 0 0
11:55 pm 23:55 Clear 50 10 42 5.6 74 74 ESE 7 11 30.33 1027 10 16.0934 0 0

Powered by AerisWeather